Change the Weather History Date:

Thursday, February 13, 2014

  Actual Average (KRPD) Record (KRPD)
Temperature  
Mean Temperature 16 °F -  
Max Temperature 24 °F 26 °F 59 °F (1997)
Min Temperature 9 °F 8 °F -5 °F (1997)
Degree Days  
Heating Degree Days 48    
Moisture  
Dew Point 14 °F    
Average Humidity 86    
Maximum Humidity 95    
Minimum Humidity 76    
Precipitation  
Precipitation 0.01 in - - ()
Sea Level Pressure  
Sea Level Pressure 29.57 in    
Wind  
Wind Speed 9 mph (South)    
Max Wind Speed 17 mph    
Max Gust Speed 23 mph    
Visibility 6 miles    
Events Snow    
Averages and records for this station are not official NWS values.
T = Trace of Precipitation, MM = Missing Value Source: NWS Daily Summary

Daily Weather History Graph

Daily Weather History Graph

Search for Another Location

Airport or City:

Trip Planner

Search our weather history database for the weather conditions in past years. The results will help you decide how hot, cold, wet, or windy it might be!

Date:

Astronomy

Feb. 13, 2014 Rise Set
Actual Time 7:08 AM CST 5:28 PM CST
Civil Twilight 6:38 AM CST 5:58 PM CST
Nautical Twilight 6:03 AM CST 6:33 PM CST
Astronomical Twilight 5:29 AM CST 7:08 PM CST
Moon 4:37 PM CST (2/13) 6:02 AM CST (2/13)
Length of Visible Light 11h 20m
Length of Day
10h 19m
Waxing Gibbous, 99% of the Moon is Illuminated
Feb 13
Waxing Gibbous
Feb 14
Full
Feb 22
Last Quarter
Mar 1
New
Mar 8
First Quarter

Hourly Weather History & Observations

Time (CST) Temp. Windchill Dew Point Humidity Pressure Visibility Wind Dir Wind Speed Gust Speed Precip Events Conditions
12:15 AM 10.8 °F 2.7 °F 8.2 °F 90% 29.85 in 7.0 mi ESE 4.6 mph - N/A   Clear
12:35 AM 10.9 °F 2.9 °F 8.4 °F 90% 29.84 in 7.0 mi SE 4.6 mph - N/A   Clear
12:55 AM 9.5 °F 1.2 °F 6.8 °F 89% 29.83 in 7.0 mi ESE 4.6 mph - N/A   Clear
1:15 AM 11.1 °F 1.7 °F 8.8 °F 90% 29.83 in 7.0 mi SE 5.8 mph - N/A   Clear
1:35 AM 12.6 °F 3.4 °F 9.7 °F 88% 29.82 in 10.0 mi SSE 5.8 mph - N/A   Clear
1:55 AM 12.7 °F 2.4 °F 9.5 °F 87% 29.81 in 10.0 mi SSE 6.9 mph - N/A   Clear
2:15 AM 12.6 °F 0.2 °F 9.1 °F 86% 29.78 in 10.0 mi SE 9.2 mph - N/A   Clear
2:35 AM 12.6 °F 2.2 °F 9.0 °F 85% 29.78 in 10.0 mi SSE 6.9 mph - N/A   Clear
2:55 AM 12.2 °F 0.7 °F 8.6 °F 85% 29.76 in 10.0 mi SE 8.1 mph - N/A   Clear
3:15 AM 12.2 °F -0.2 °F 8.6 °F 85% 29.74 in 10.0 mi SSE 9.2 mph - N/A   Clear
3:35 AM 12.2 °F 2.9 °F 8.6 °F 85% 29.73 in 10.0 mi SE 5.8 mph - N/A   Clear
3:55 AM 12.7 °F 3.6 °F 9.1 °F 86% 29.71 in 10.0 mi SE 5.8 mph - N/A   Mostly Cloudy
4:15 AM 12.9 °F -0.2 °F 9.3 °F 86% 29.69 in 10.0 mi SE 10.4 mph - N/A   Overcast
4:35 AM 13.1 °F 0.9 °F 9.5 °F 86% 29.68 in 10.0 mi SE 9.2 mph 17.3 mph N/A   Overcast
4:55 AM 13.3 °F 0.3 °F 9.7 °F 86% 29.66 in 10.0 mi SE 10.4 mph - N/A   Overcast
5:15 AM 13.5 °F -0.2 °F 9.7 °F 85% 29.65 in 10.0 mi SSE 11.5 mph 20.7 mph N/A   Overcast
5:35 AM 13.3 °F 0.3 °F 9.9 °F 86% 29.63 in 5.0 mi SE 10.4 mph 17.3 mph N/A Snow Light Snow
5:55 AM 13.1 °F -2.0 °F 10.0 °F 88% 29.60 in 1.8 mi SE 13.8 mph 18.4 mph N/A Snow Light Snow
6:15 AM 13.5 °F -0.9 °F 10.4 °F 88% 29.58 in 0.8 mi SE 12.7 mph - N/A Snow Snow
6:35 AM 14.0 °F -0.2 °F 10.9 °F 88% 29.56 in 5.0 mi SE 12.7 mph 18.4 mph N/A Snow Light Snow
6:55 AM 14.9 °F 2.3 °F 11.5 °F 86% 29.56 in 7.0 mi SSE 10.4 mph 18.4 mph N/A   Overcast
7:15 AM 15.6 °F 1.8 °F 11.8 °F 85% 29.56 in 2.5 mi SSE 12.7 mph 19.6 mph N/A Snow Light Snow
7:35 AM 15.4 °F 1.0 °F 11.7 °F 85% 29.55 in 2.5 mi SSE 13.8 mph 17.3 mph N/A Snow Light Snow
7:55 AM 15.4 °F 1.6 °F 11.5 °F 84% 29.53 in 2.0 mi SSE 12.7 mph 20.7 mph N/A Snow Light Snow
8:15 AM 15.4 °F 3.8 °F 12.0 °F 86% 29.53 in 1.5 mi SSE 9.2 mph - N/A Snow Light Snow
8:35 AM 15.8 °F 3.4 °F 12.2 °F 86% 29.52 in 4.0 mi SSE 10.4 mph 17.3 mph N/A Snow Light Snow
8:55 AM 16.7 °F 4.5 °F 12.6 °F 84% 29.51 in 4.0 mi SSE 10.4 mph 18.4 mph N/A Snow Light Snow
9:15 AM 17.2 °F 3.9 °F 13.3 °F 84% 29.50 in 2.0 mi SSE 12.7 mph 17.3 mph N/A Snow Light Snow
9:35 AM 18.0 °F 5.4 °F 13.6 °F 83% 29.49 in 4.0 mi SSE 11.5 mph 19.6 mph N/A   Haze
9:55 AM 18.5 °F 6.1 °F 14.4 °F 84% 29.48 in 2.5 mi SSE 11.5 mph 17.3 mph N/A Snow Light Snow
10:15 AM 18.9 °F 6.5 °F 14.9 °F 85% 29.48 in 1.5 mi South 11.5 mph - N/A Snow Light Snow
10:35 AM 19.6 °F 6.2 °F 15.8 °F 85% 29.47 in 1.5 mi SSE 13.8 mph 18.4 mph 0.01 in Snow Light Snow
10:55 AM 19.4 °F 8.6 °F 15.6 °F 85% 29.46 in 2.0 mi SSE 9.2 mph - 0.01 in   Overcast
11:15 AM 19.9 °F 10.1 °F 15.8 °F 84% 29.45 in 3.0 mi SSE 8.1 mph - N/A   Overcast
11:35 AM 20.3 °F 9.8 °F 16.5 °F 85% 29.44 in 4.0 mi SSE 9.2 mph - N/A   Overcast
11:55 AM 20.5 °F 10.8 °F 16.7 °F 85% 29.43 in 4.0 mi SSE 8.1 mph - N/A   Overcast
12:15 PM 21.0 °F 13.4 °F 17.8 °F 87% 29.42 in 2.5 mi SSE 5.8 mph - N/A   Overcast
12:35 PM 21.2 °F 13.6 °F 18.5 °F 89% 29.41 in 2.0 mi SSE 5.8 mph - N/A   Overcast
12:55 PM 21.7 °F 17.0 °F 19.6 °F 91% 29.40 in 1.2 mi SSE 3.5 mph - N/A   Overcast
1:35 PM 22.1 °F 14.7 °F 20.3 °F 93% 29.39 in 1.5 mi SSE 5.8 mph - N/A   Overcast
1:55 PM 22.8 °F 18.2 °F 21.2 °F 93% 29.39 in 1.2 mi South 3.5 mph - N/A   Light Freezing Rain
2:15 PM 23.0 °F 18.4 °F 21.2 °F 93% 29.39 in 1.5 mi South 3.5 mph - N/A   Overcast
2:35 PM 23.4 °F 17.4 °F 21.9 °F 94% 29.39 in 1.2 mi SSW 4.6 mph - N/A   Overcast
2:55 PM 23.9 °F 16.8 °F 22.5 °F 94% 29.41 in 1.0 mi SW 5.8 mph - N/A Snow Light Snow
3:15 PM 24.3 °F 18.4 °F 23.0 °F 95% 29.41 in 1.2 mi SW 4.6 mph - N/A   Overcast
3:35 PM 24.6 °F 17.7 °F 23.2 °F 94% 29.42 in 1.2 mi WSW 5.8 mph - N/A Snow Light Snow
3:55 PM 24.8 °F 16.1 °F 23.0 °F 93% 29.43 in 1.5 mi WSW 8.1 mph - N/A Snow Light Snow
4:15 PM 24.8 °F 16.1 °F 22.8 °F 92% 29.44 in 2.5 mi West 8.1 mph - N/A Snow Light Snow
4:35 PM 24.8 °F 16.1 °F 22.6 °F 91% 29.45 in 7.0 mi West 8.1 mph - N/A Snow Light Snow
4:55 PM 24.8 °F 12.4 °F 21.9 °F 89% 29.46 in 5.0 mi NW 15.0 mph - N/A Snow Light Snow
5:15 PM 23.9 °F 10.3 °F 20.3 °F 86% 29.48 in 1.8 mi NW 17.3 mph - N/A Snow Light Snow
5:55 PM 22.1 °F 12.0 °F 19.0 °F 88% 29.51 in 3.0 mi WNW 9.2 mph - N/A Snow Light Snow
6:15 PM 21.4 °F 7.5 °F 17.4 °F 85% 29.52 in 5.0 mi NW 16.1 mph - N/A Snow Light Snow
6:35 PM 20.8 °F 7.3 °F 16.5 °F 83% 29.53 in 7.0 mi NW 15.0 mph 21.9 mph N/A Snow Light Snow
6:55 PM 19.9 °F 6.2 °F 15.8 °F 84% 29.55 in 7.0 mi NW 15.0 mph - N/A Snow Light Snow
7:15 PM 20.1 °F 7.5 °F 15.8 °F 83% 29.55 in 7.0 mi NW 12.7 mph 17.3 mph N/A Snow Light Snow
7:35 PM 20.3 °F 9.0 °F 15.8 °F 83% 29.55 in 7.0 mi NW 10.4 mph - N/A Snow Light Snow
7:55 PM 20.1 °F 8.8 °F 15.6 °F 83% 29.56 in 7.0 mi NW 10.4 mph - N/A Snow Light Snow
8:15 PM 18.9 °F 8.0 °F 14.7 °F 84% 29.56 in 10.0 mi NW 9.2 mph - N/A   Mostly Cloudy
8:35 PM 18.3 °F 8.2 °F 14.5 °F 85% 29.56 in 5.0 mi WNW 8.1 mph - N/A Snow Light Snow
8:55 PM 18.7 °F 7.0 °F 15.6 °F 88% 29.57 in 4.0 mi WNW 10.4 mph - N/A Snow Light Snow
9:15 PM 19.4 °F 6.0 °F 15.8 °F 86% 29.57 in 5.0 mi NW 13.8 mph 17.3 mph N/A Snow Light Snow
9:35 PM 19.2 °F 5.8 °F 14.4 °F 81% 29.57 in 7.0 mi NW 13.8 mph 23.0 mph N/A Snow Light Snow
9:55 PM 17.4 °F 2.4 °F 12.0 °F 79% 29.58 in 10.0 mi NW 16.1 mph - N/A   Overcast
10:15 PM 16.3 °F 2.1 °F 10.2 °F 77% 29.59 in 10.0 mi NW 13.8 mph 20.7 mph N/A   Mostly Cloudy
10:35 PM 15.3 °F -0.9 °F 9.0 °F 76% 29.60 in 10.0 mi NW 17.3 mph 21.9 mph N/A   Overcast
10:55 PM 14.9 °F 0.3 °F 8.6 °F 76% 29.61 in 10.0 mi NW 13.8 mph - N/A   Overcast
11:15 PM 14.2 °F -0.6 °F 8.2 °F 77% 29.61 in 10.0 mi NW 13.8 mph - N/A   Overcast
11:35 PM 13.6 °F 0.7 °F 7.9 °F 78% 29.62 in 10.0 mi NW 10.4 mph - N/A   Overcast
11:55 PM 13.5 °F -0.2 °F 8.2 °F 80% 29.63 in 10.0 mi NW 11.5 mph 17.3 mph N/A Snow Light Snow